Wind_Speed
23 21 20 18 16 14 13 14 14 14 13 12 10 9 8 8 8 10 10 11 10 11 14 15 14 17 21 13 15 16 19 18 19 19 19 19 20 21 20 21 22 22 23
19 21 19 18 16 15 13 12 13 12 11 11 10 9 7 7 8 9 10 10 11 12 14 13 14 14 14 15 15 15 18 18 18 18 18 19 20 21 21 21 22 23 23
19 20 20 18 17 15 14 12 12 12 10 10 8 6 4 6 9 10 11 11 11 13 14 15 14 14 14 15 15 15 15 17 18 18 17 18 19 20 21 22 22 22 22
19 18 19 19 18 16 14 13 11 10 9 8 7 5 3 9 11 11 11 11 12 14 16 18 15 13 13 12 13 15 15 16 16 18 17 17 17 19 19 19 19 19 20
19 17 18 19 18 16 15 13 12 10 8 7 8 10 11 15 13 12 12 11 12 15 15 14 14 12 11 12 12 13 14 15 15 18 17 15 16 17 17 18 17 17 18
18 18 17 17 17 16 15 14 12 10 8 6 9 12 15 16 15 13 12 11 12 13 13 13 11 10 12 14 13 11 13 13 13 16 17 15 14 15 16 15 16 16 16
18 17 17 16 15 15 14 13 12 10 8 7 7 11 12 14 14 13 12 11 11 12 12 12 11 10 9 10 11 10 10 12 13 14 15 15 13 14 15 14 15 14 15
14 15 16 16 15 13 12 12 11 10 9 7 6 8 10 10 11 11 10 10 11 11 11 11 11 10 10 10 11 11 10 9 12 13 14 14 13 13 14 14 14 13 13
16 14 14 14 14 13 12 10 9 9 8 8 7 6 8 10 11 12 11 11 11 11 11 10 10 10 8 8 9 8 9 10 9 11 13 14 13 13 12 12 13 12 12
17 15 14 13 12 11 11 11 9 8 6 7 6 4 9 9 11 11 12 12 12 11 10 9 9 9 9 7 8 9 8 8 7 9 12 13 13 13 12 12 12 12 11
18 16 16 14 12 12 11 10 9 9 6 7 5 4 8 8 10 10 12 12 11 11 9 7 7 7 7 7 7 7 7 6 6 9 11 13 12 12 13 12 12 12 12
16 15 16 15 14 12 12 11 10 9 6 8 7 7 6 7 10 11 11 11 11 10 9 7 5 5 6 6 4 5 5 4 6 8 12 12 13 13 12 13 12 12 11
10 12 15 16 14 12 11 10 11 9 7 7 8 7 4 4 7 11 12 11 11 10 9 8 6 4 6 5 4 4 5 5 7 6 12 12 12 13 13 13 13 13 12
3 4 14 15 15 13 12 11 11 10 8 6 6 6 4 3 4 12 13 11 11 10 9 8 7 6 5 5 4 6 7 8 11 9 14 14 14 13 13 14 13 13 12
2 7 8 14 15 15 13 13 12 11 9 8 6 5 6 5 3 8 12 13 11 8 6 6 6 7 5 3 4 9 8 6 13 9 18 14 16 16 15 15 15 13 11
1 5 11 13 15 16 14 13 13 12 9 8 8 6 8 8 7 7 9 9 9 8 7 7 5 6 6 6 6 7 10 8 10 11 21 19 14 19 19 18 20 14 20
2 3 9 12 15 15 14 13 13 13 10 8 9 8 8 6 4 7 10 11 8 6 7 9 6 5 3 2 3 7 9 9 11 15 15 17 17 16 19 22 23 20 20
9 5 7 11 10 11 12 10 12 14 10 10 11 12 10 7 5 5 6 6 7 8 7 7 5 5 7 1 2 2 3 8 11 14 17 19 18 17 16 19 21 19 18
11 9 12 16 11 10 10 9 11 11 10 10 9 9 9 7 6 5 5 5 5 5 3 2 2 3 3 6 6 5 5 7 11 13 16 19 16 15 16 20 20 19 23
12 9 11 9 11 10 10 11 12 16 14 12 9 5 5 7 8 7 6 5 5 5 5 2 4 3 4 4 5 9 5 4 9 14 14 20 18 18 16 18 19 19 27
14 12 10 9 8 8 6 8 11 13 14 12 9 8 8 5 9 8 7 5 7 7 8 9 7 8 7 7 6 6 7 8 9 11 16 16 16 20 18 16 15 20 24
10 12 15 11 11 8 6 5 8 10 13 13 12 10 8 9 8 10 10 9 9 10 10 10 7 8 8 8 8 7 8 4 4 9 10 14 14 17 19 18 16 19 22
11 8 9 11 11 12 11 10 11 13 12 12 9 6 6 8 11 10 10 12 11 9 10 12 11 11 12 12 12 11 12 11 9 9 11 14 17 18 17 20 18 17 19
10 11 13 11 9 10 12 14 13 13 11 9 8 8 8 8 9 10 11 10 12 11 10 12 12 12 13 14 15 12 13 13 12 10 8 9 13 16 16 16 17 18 18
14 11 10 11 11 10 9 10 12 13 14 14 14 13 13 11 10 12 12 12 12 13 12 11 12 14 14 13 16 18 19 15 13 12 11 11 14 15 17 17 17 17 17
14 13 12 10 8 9 10 11 10 10 12 15 16 16 14 14 15 15 16 16 15 16 16 16 15 16 17 20 17 19 19 16 14 11 11 14 14 15 18 19 18 18 17
Wind_Direction
152 147 145 143 139 139 138 134 130 131 127 125 117 112 119 122 108 97 95 95 97 107 114 121 115 102 115 92 99 106 113 111 109 105 105 105 104 104 105 105 102 102 102
150 148 149 147 147 146 142 139 132 126 121 114 112 112 116 126 120 113 105 98 102 112 120 123 119 108 99 91 96 104 117 111 109 110 109 110 108 108 110 111 108 104 104
155 152 151 152 154 152 147 147 139 134 126 116 102 99 120 139 138 128 119 112 113 117 120 129 130 116 103 98 100 107 114 111 112 112 114 115 111 110 111 114 111 109 108
154 154 154 154 156 155 153 149 144 143 135 122 105 90 141 160 143 136 125 119 120 128 128 130 129 119 109 101 107 112 109 115 118 121 121 119 117 115 118 116 113 112 111
155 156 156 155 158 157 157 154 152 153 144 132 106 85 104 136 138 134 130 129 127 135 136 132 125 129 121 112 110 113 118 118 123 126 124 127 122 122 123 122 117 115 115
157 159 160 159 159 160 161 156 152 150 145 130 106 94 107 121 126 130 132 134 131 133 138 140 137 135 124 108 106 120 123 119 127 135 134 130 129 125 129 127 125 124 120
160 163 163 162 163 163 163 156 152 150 145 133 118 109 111 120 124 128 132 134 136 140 140 139 139 138 122 115 116 117 132 134 134 141 145 137 134 135 132 131 128 128 128
167 167 167 165 166 167 165 161 158 153 151 147 138 123 124 130 131 130 131 141 145 145 143 143 145 143 132 127 122 125 135 146 152 145 144 147 143 146 144 139 138 138 134
169 177 174 171 169 169 168 166 159 158 157 159 161 155 152 141 137 139 137 137 146 148 148 154 155 149 145 139 131 129 139 145 149 161 149 149 155 155 155 148 144 145 142
173 179 179 180 175 175 170 169 164 161 163 167 169 181 178 166 155 145 139 139 142 146 151 155 154 159 155 150 149 144 140 148 152 169 162 156 160 165 161 154 150 148 146
176 181 182 182 182 179 178 177 172 166 153 153 155 144 175 176 176 162 150 147 146 145 147 152 155 148 142 154 154 144 148 163 201 193 185 172 167 169 176 172 165 160 156
185 185 186 188 186 187 182 181 181 182 171 147 145 150 160 176 173 178 167 161 156 151 149 151 151 134 130 139 154 158 161 148 168 183 191 185 177 174 177 182 175 166 163
183 197 198 193 192 188 192 188 186 188 187 168 158 158 173 198 192 182 189 179 167 160 158 161 162 160 128 137 162 160 163 178 176 179 192 190 186 183 180 184 180 171 184
203 214 196 201 193 192 195 198 194 193 192 186 170 151 173 219 224 194 191 187 182 172 174 171 176 182 181 163 178 157 161 203 210 222 200 198 197 193 190 189 187 176 185
215 219 225 210 206 199 200 206 208 202 201 204 200 164 135 110 93 161 191 197 194 186 188 183 174 175 185 184 187 202 212 224 201 199 192 197 202 203 199 191 187 182 195
272 241 233 208 205 209 211 211 218 219 207 212 207 191 145 137 122 123 148 187 192 192 188 174 181 167 183 236 247 214 209 198 203 209 201 200 201 208 207 203 208 210 220
304 267 214 213 215 211 215 219 230 232 220 203 201 204 173 151 139 129 145 161 170 170 157 164 174 178 174 176 223 228 211 214 205 206 209 197 209 210 213 220 225 227 227
270 286 190 199 198 206 209 217 238 244 224 214 204 206 192 184 178 166 149 160 169 180 175 174 187 241 277 350 308 271 204 209 214 211 206 209 216 214 219 226 226 218 197
271 270 277 202 196 215 200 206 226 229 221 224 223 206 203 193 201 212 185 192 185 192 190 119 154 160 345 307 291 292 256 219 218 214 212 209 215 221 227 230 232 212 198
253 261 236 208 213 213 212 215 225 229 229 230 235 229 221 199 200 215 218 222 232 232 216 236 285 267 299 294 290 292 290 249 221 220 219 217 227 224 227 226 226 213 208
240 242 247 220 216 223 220 239 235 239 246 243 242 246 257 239 212 227 228 241 257 260 242 252 281 266 275 297 274 311 267 273 244 229 239 220 234 223 219 210 224 216 215
261 252 240 233 228 241 240 248 250 238 238 244 248 245 250 251 243 221 232 239 241 257 264 265 266 270 269 287 286 287 294 295 257 252 243 235 229 218 225 230 223 224 226
244 220 208 220 226 239 246 239 232 235 230 236 244 248 250 240 236 233 237 242 243 248 260 262 258 272 271 273 279 280 277 285 285 269 240 230 228 230 242 235 232 231 227
188 196 187 192 201 209 217 226 237 245 248 243 242 231 210 209 220 220 229 229 238 253 274 262 259 262 268 269 271 275 278 272 276 268 257 231 242 240 230 229 236 239 237
197 197 195 195 204 212 213 218 224 230 235 231 234 233 228 226 227 233 234 235 243 251 266 268 267 263 267 277 274 268 262 271 274 261 261 249 247 241 233 237 239 244 244
187 191 193 200 210 221 227 225 226 228 230 232 241 246 242 236 235 237 243 245 247 254 259 264 264 266 280 272 276 269 250 254 257 250 257 252 238 235 236 234 232 236 243
Height
3168 3170 3172 3174 3176 3179 3180 3182 3183 3184 3185 3184 3184 3184 3185 3186 3186 3187 3188 3189 3189 3188 3189 3191 3193 3194 3194 3194 3195 3195 3197 3199 3199 3200 3201 3202 3203 3203 3204 3206 3206 3207 3208
3170 3171 3173 3175 3178 3180 3182 3184 3184 3185 3186 3186 3186 3187 3187 3187 3188 3189 3189 3190 3190 3190 3192 3193 3195 3196 3197 3197 3197 3198 3200 3200 3202 3203 3204 3205 3206 3207 3208 3209 3210 3211 3212
3172 3173 3175 3177 3179 3181 3183 3185 3186 3187 3188 3187 3187 3188 3188 3189 3190 3191 3192 3192 3193 3192 3193 3196 3198 3199 3199 3199 3200 3201 3202 3202 3204 3206 3207 3208 3210 3210 3211 3213 3214 3214 3216
3173 3175 3177 3179 3181 3183 3184 3186 3188 3189 3189 3189 3189 3189 3188 3189 3191 3192 3193 3194 3194 3195 3196 3198 3200 3201 3202 3202 3202 3203 3204 3205 3207 3208 3210 3212 3212 3213 3215 3216 3217 3218 3219
3174 3177 3179 3181 3182 3184 3186 3188 3190 3191 3191 3191 3191 3190 3189 3190 3192 3194 3195 3196 3196 3197 3198 3200 3202 3203 3203 3204 3205 3205 3207 3208 3209 3211 3213 3214 3215 3216 3217 3219 3220 3222 3222
3175 3178 3181 3182 3184 3186 3188 3189 3191 3192 3193 3193 3193 3192 3193 3193 3194 3195 3196 3197 3198 3199 3200 3201 3203 3204 3205 3207 3207 3207 3209 3210 3212 3213 3215 3217 3218 3219 3220 3222 3223 3225 3226
3177 3179 3182 3183 3186 3188 3189 3191 3192 3193 3194 3195 3194 3195 3195 3196 3196 3197 3198 3199 3199 3200 3201 3203 3204 3205 3207 3208 3209 3210 3211 3212 3213 3215 3216 3218 3220 3221 3223 3224 3226 3227 3228
3179 3181 3183 3185 3186 3188 3190 3192 3193 3194 3195 3196 3196 3197 3197 3198 3198 3198 3200 3200 3200 3200 3202 3203 3204 3206 3208 3209 3210 3212 3213 3215 3216 3217 3218 3219 3221 3223 3225 3226 3228 3229 3231
3179 3182 3184 3186 3187 3189 3190 3192 3194 3195 3196 3196 3197 3198 3198 3199 3200 3199 3200 3201 3202 3202 3203 3204 3205 3207 3208 3210 3211 3213 3215 3216 3217 3218 3219 3220 3222 3225 3227 3227 3229 3231 3232
3179 3182 3185 3186 3189 3190 3191 3193 3195 3196 3196 3197 3198 3198 3199 3200 3200 3201 3201 3202 3203 3203 3204 3205 3206 3207 3209 3211 3212 3213 3216 3217 3218 3219 3220 3221 3223 3226 3228 3229 3230 3232 3234
3179 3182 3184 3187 3189 3191 3192 3194 3195 3196 3197 3197 3198 3199 3200 3200 3201 3202 3202 3202 3203 3204 3205 3205 3206 3208 3210 3211 3213 3215 3216 3217 3218 3220 3221 3222 3224 3226 3228 3230 3232 3233 3235
3180 3182 3184 3186 3188 3190 3192 3194 3195 3197 3198 3198 3199 3199 3199 3200 3201 3202 3203 3203 3204 3205 3206 3207 3207 3209 3211 3212 3214 3215 3216 3217 3218 3219 3221 3222 3224 3226 3228 3230 3233 3234 3236
3182 3182 3184 3186 3188 3190 3193 3194 3196 3197 3198 3199 3198 3198 3199 3201 3201 3201 3203 3204 3204 3206 3207 3207 3207 3208 3211 3212 3213 3215 3216 3217 3218 3219 3221 3222 3224 3225 3228 3231 3233 3235 3237
3181 3183 3184 3186 3188 3190 3192 3195 3196 3197 3198 3199 3199 3199 3200 3200 3201 3202 3203 3204 3205 3206 3207 3208 3208 3209 3210 3211 3213 3214 3215 3216 3218 3219 3220 3222 3224 3225 3228 3230 3233 3235 3237
3180 3183 3185 3186 3188 3190 3192 3194 3196 3197 3198 3199 3200 3200 3200 3201 3201 3201 3202 3204 3205 3206 3207 3208 3209 3209 3210 3211 3212 3214 3215 3215 3216 3217 3219 3221 3223 3225 3227 3229 3232 3234 3237
3179 3182 3183 3186 3188 3189 3191 3194 3196 3197 3198 3199 3200 3200 3201 3201 3201 3201 3203 3205 3206 3206 3206 3207 3209 3209 3210 3210 3211 3211 3212 3213 3214 3215 3216 3219 3221 3224 3226 3228 3230 3232 3236
3181 3182 3183 3185 3187 3189 3191 3193 3195 3197 3198 3198 3199 3200 3201 3202 3203 3203 3204 3204 3206 3206 3207 3207 3208 3208 3208 3209 3210 3209 3211 3211 3213 3214 3215 3218 3220 3222 3224 3226 3228 3231 3233
3180 3182 3183 3185 3187 3188 3189 3192 3194 3196 3197 3197 3198 3200 3201 3201 3202 3203 3204 3205 3205 3205 3207 3208 3207 3207 3205 3207 3209 3209 3208 3210 3211 3213 3214 3216 3218 3220 3221 3223 3225 3227 3230
3179 3180 3178 3182 3187 3188 3188 3190 3193 3195 3196 3197 3198 3199 3200 3201 3202 3202 3203 3204 3205 3205 3206 3206 3206 3206 3205 3206 3206 3205 3206 3208 3209 3211 3212 3215 3215 3218 3219 3220 3222 3226 3229
3176 3179 3180 3180 3183 3186 3186 3188 3190 3191 3193 3195 3197 3198 3199 3199 3200 3200 3201 3203 3203 3204 3206 3206 3206 3205 3204 3204 3204 3204 3204 3206 3207 3208 3209 3211 3213 3215 3216 3218 3219 3222 3226
3173 3177 3178 3179 3181 3183 3184 3185 3187 3189 3191 3192 3194 3195 3197 3197 3198 3199 3199 3201 3201 3202 3203 3204 3204 3204 3203 3204 3203 3203 3203 3204 3204 3205 3204 3208 3209 3211 3213 3215 3218 3220 3222
3170 3173 3176 3178 3179 3181 3182 3183 3185 3187 3188 3189 3191 3192 3193 3195 3196 3197 3198 3198 3199 3200 3201 3202 3202 3203 3202 3203 3203 3202 3201 3202 3203 3203 3203 3204 3206 3208 3210 3212 3215 3217 3219
3169 3172 3174 3177 3178 3179 3180 3181 3182 3183 3185 3186 3188 3190 3191 3192 3194 3194 3195 3196 3197 3198 3199 3199 3199 3200 3201 3202 3202 3202 3201 3200 3200 3200 3200 3200 3204 3205 3206 3209 3211 3213 3214
3169 3171 3172 3173 3174 3176 3177 3179 3180 3181 3183 3186 3187 3188 3189 3190 3191 3192 3193 3193 3195 3196 3197 3197 3198 3198 3198 3199 3199 3199 3199 3199 3198 3198 3199 3200 3201 3202 3203 3205 3207 3209 3210
3167 3168 3170 3170 3172 3174 3176 3178 3179 3179 3181 3182 3184 3186 3186 3188 3189 3190 3191 3192 3193 3194 3194 3195 3195 3195 3195 3195 3195 3196 3196 3197 3197 3197 3197 3198 3199 3200 3201 3203 3204 3205 3207
3165 3166 3167 3168 3170 3172 3173 3176 3177 3178 3179 3180 3181 3183 3185 3186 3187 3188 3189 3189 3190 3191 3191 3192 3191 3191 3192 3191 3191 3191 3192 3193 3194 3194 3194 3194 3194 3197 3198 3199 3200 3202 3204